Truth Or Consequences, NM

9:02 PM MST on February 17, 2018 (GMT -0700)
Truth Or Consequences Municipal

Weather History for KTCS - July, 2013

Change the Weather History Date:

Tuesday, July 2, 2013

  Actual Average Record
Temperature  
Mean Temperature 74 °F -  
Max Temperature 85 °F 94 °F 104 °F (2002)
Min Temperature 62 °F 66 °F 61 °F (2016)
Cooling Degree Days 9    
Month to date cooling degree days 21  
Year to date cooling degree days 801  
Since 1 June cooling degree days 553  
Growing Degree Days 24 (Base 50)    
Moisture  
Dew Point 54 °F    
Average Humidity 58    
Maximum Humidity 87    
Minimum Humidity 28    
Precipitation  
Precipitation 0.01 in - 0.04 in (2001)
Month to date precipitation 0.26  
Year to date precipitation 0.61  
Sea Level Pressure  
Sea Level Pressure 29.99 in    
Wind  
Wind Speed 8 mph (SSW)    
Max Wind Speed 24 mph    
Max Gust Speed 31 mph    
Visibility 10 miles    
Events Rain    
T = Trace of Precipitation, MM = Missing Value Source: NWS Daily Summary

Daily Weather History Graph

Daily Weather History Graph

Search for Another Location

Airport or City:

Trip Planner

Search our weather history database for the weather conditions in past years. The results will help you decide how hot, cold, wet, or windy it might be!

Date:

Astronomy

Jul. 02, 2013 Rise Set
Actual Time 6:04 AM MDT 8:22 PM MDT
Civil Twilight 5:35 AM MDT 8:50 PM MDT
Nautical Twilight 5:00 AM MDT 9:26 PM MDT
Astronomical Twilight 4:21 AM MDT 10:04 PM MDT
Moon 1:59 AM MDT (7/2) 3:45 PM MDT (7/2)
Length of Visible Light 15h 15m
Length of Day
14h 18m
Waning Crescent, 26% of the Moon is Illuminated
Jul 2
Waning Crescent
Jul 8
New
Jul 15
First Quarter
Jul 22
Full
Jul 29
Last Quarter

Hourly Weather History & Observations

Time (MDT) Temp. Heat Index Dew Point Humidity Pressure Visibility Wind Dir Wind Speed Gust Speed Precip Events Conditions
12:53 AM 66.0 °F - 60.1 °F 81% 30.05 in 10.0 mi Calm Calm - N/A   Clear
1:53 AM 64.9 °F - 60.1 °F 84% 30.04 in 10.0 mi Calm Calm - N/A   Clear
2:53 AM 64.9 °F - 61.0 °F 87% 30.02 in 10.0 mi ENE 3.5 mph - N/A   Clear
3:53 AM 64.9 °F - 60.1 °F 84% 30.01 in 10.0 mi Calm Calm - N/A   Clear
4:53 AM 63.0 °F - 55.9 °F 78% 30.01 in 10.0 mi NNE 4.6 mph - N/A   Clear
5:53 AM 63.0 °F - 55.0 °F 75% 30.01 in 10.0 mi North 3.5 mph - N/A   Clear
6:53 AM 63.0 °F - 55.9 °F 78% 30.03 in 10.0 mi North 3.5 mph - N/A   Partly Cloudy
7:53 AM 64.9 °F - 55.0 °F 70% 30.08 in 10.0 mi NNE 4.6 mph - N/A   Clear
8:53 AM 69.1 °F - 54.0 °F 58% 30.09 in 10.0 mi Variable 3.5 mph - N/A   Clear
9:53 AM 70.0 °F - 55.9 °F 61% 30.07 in 10.0 mi South 4.6 mph - N/A   Clear
10:53 AM 73.9 °F - 57.9 °F 57% 30.05 in 10.0 mi SSE 8.1 mph - N/A   Clear
11:53 AM 75.9 °F - 57.9 °F 54% 30.03 in 10.0 mi SSE 8.1 mph - N/A   Partly Cloudy
12:53 PM 78.1 °F - 55.9 °F 46% 30.01 in 10.0 mi Variable 6.9 mph - N/A   Clear
1:53 PM 80.1 °F 80.0 °F 54.0 °F 40% 29.96 in 10.0 mi South 6.9 mph 20.7 mph N/A   Clear
2:53 PM 82.9 °F - 51.1 °F 33% 29.91 in 10.0 mi South 11.5 mph 20.7 mph N/A   Clear
3:53 PM 82.9 °F - 48.0 °F 29% 29.88 in 10.0 mi South 10.4 mph 24.2 mph N/A   Clear
4:53 PM 82.0 °F - 46.9 °F 29% 29.88 in 10.0 mi SSW 17.3 mph 21.9 mph N/A   Clear
5:53 PM 81.0 °F - 46.9 °F 30% 29.87 in 10.0 mi South 15.0 mph - N/A   Clear
6:20 PM 77.0 °F - 50.0 °F 39% 30.10 in 10.0 mi WNW 21.9 mph 28.8 mph N/A   Partly Cloudy
6:53 PM 75.9 °F - 50.0 °F 40% 29.89 in 10.0 mi West 16.1 mph - N/A   Clear
7:53 PM 75.0 °F - 50.0 °F 41% 29.83 in 10.0 mi WSW 12.7 mph - 0.00 in Rain Light Rain
8:00 PM 75.2 °F - 50.0 °F 41% 30.09 in 10.0 mi NE 6.9 mph - 0.00 in   Scattered Clouds
8:53 PM 75.9 °F - 50.0 °F 40% 29.93 in 10.0 mi WNW 4.6 mph 19.6 mph 0.00 in   Mostly Cloudy
9:53 PM 71.1 °F - 55.0 °F 57% 29.99 in 10.0 mi ESE 5.8 mph - 0.00 in   Mostly Cloudy
10:53 PM 66.9 °F - 59.0 °F 76% 30.06 in 10.0 mi NNW 11.5 mph 17.3 mph 0.01 in Rain Light Rain
11:53 PM 66.0 °F - 57.9 °F 75% 29.91 in 10.0 mi WSW 20.7 mph 26.5 mph 0.00 in Rain Light Rain